RYR86DZ EBCI-LFMU

Flight info

Callsign RYR86DZ
Flight time 1h 30m
Altitude 31000
Route CIV N872 LESDO DCT KOVIN DCT DUCRA UM728 RESMI UN857 DISAK DCT DIRMO DCT ETAMO DCT ADEKA DCT MOKDI DCT MEN J27 AFRIC
Aircraft B738/M-SDE2E3FGHIRWXY/LB1

Departure

Time 2026-04-30 08:05
Airport Brussels South Charleroi Airport (EBCI)

Arrival

Time 2026-04-30 09:36
Airport Béziers Vias airport (LFMU)
Time Latitude Longitude Altitude Speed Heading
2026-04-30 07:40 50.46866 4.47103 625 ft 0 kts 336°
2026-04-30 07:52 50.46865 4.47103 625 ft 2 kts 336°
2026-04-30 07:52 50.46848 4.47122 623 ft 4 kts 289°
2026-04-30 07:52 50.46843 4.47159 622 ft 1 kts 282°
2026-04-30 07:56 50.46843 4.47157 609 ft 1 kts 279°
2026-04-30 07:56 50.46835 4.47138 619 ft 4 kts 218°
2026-04-30 07:56 50.46793 4.47153 613 ft 7 kts 168°
2026-04-30 07:56 50.46784 4.47143 609 ft 3 kts 230°
2026-04-30 07:57 50.46764 4.47087 620 ft 9 kts 244°
2026-04-30 07:57 50.46730 4.46971 617 ft 15 kts 245°
2026-04-30 07:57 50.46674 4.46814 612 ft 17 kts 214°
2026-04-30 07:57 50.46585 4.46726 620 ft 16 kts 246°
2026-04-30 07:58 50.46539 4.46569 621 ft 16 kts 245°
2026-04-30 07:58 50.46495 4.46419 622 ft 15 kts 245°
2026-04-30 07:58 50.46452 4.46271 619 ft 15 kts 245°
2026-04-30 07:58 50.46411 4.46130 619 ft 14 kts 245°
2026-04-30 07:59 50.46372 4.45995 622 ft 13 kts 246°
2026-04-30 07:59 50.46334 4.45865 623 ft 13 kts 245°
2026-04-30 07:59 50.46297 4.45738 623 ft 13 kts 245°
2026-04-30 08:00 50.46226 4.45492 623 ft 12 kts 245°
2026-04-30 08:00 50.46192 4.45372 632 ft 12 kts 246°
2026-04-30 08:00 50.46157 4.45255 628 ft 12 kts 245°
2026-04-30 08:00 50.46124 4.45138 625 ft 12 kts 245°
2026-04-30 08:01 50.46089 4.45017 634 ft 13 kts 245°
2026-04-30 08:01 50.46048 4.44876 631 ft 15 kts 245°
2026-04-30 08:01 50.46001 4.44715 631 ft 17 kts 245°
2026-04-30 08:01 50.45949 4.44535 631 ft 19 kts 245°
2026-04-30 08:02 50.45799 4.44205 631 ft 18 kts 232°
2026-04-30 08:02 50.45722 4.44052 634 ft 17 kts 232°
2026-04-30 08:03 50.45559 4.43795 636 ft 16 kts 256°
2026-04-30 08:03 50.45524 4.43712 635 ft 8 kts 86°
2026-04-30 08:03 50.45539 4.43749 641 ft 0 kts 61°
2026-04-30 08:04 50.45540 4.43751 641 ft 1 kts 62°
2026-04-30 08:04 50.45571 4.43857 637 ft 37 kts 65°
2026-04-30 08:04 50.45776 4.44563 633 ft 103 kts 65°
2026-04-30 08:04 50.46008 4.45366 635 ft 139 kts 64°
2026-04-30 08:05 50.46443 4.46845 1049 ft 153 kts 66°
2026-04-30 08:05 50.46892 4.48360 1826 ft 153 kts 72°
2026-04-30 08:05 50.48087 4.49707 2777 ft 185 kts 25°
2026-04-30 08:05 50.49178 4.50812 3031 ft 193 kts 65°
2026-04-30 08:06 50.49605 4.52110 3188 ft 206 kts 66°
2026-04-30 08:06 50.50431 4.54079 3578 ft 223 kts 59°
2026-04-30 08:06 50.51398 4.56149 3882 ft 244 kts 58°
2026-04-30 08:06 50.52434 4.58307 4674 ft 249 kts 57°
2026-04-30 08:07 50.53673 4.60159 5571 ft 257 kts 35°
2026-04-30 08:07 50.55412 4.61078 6336 ft 273 kts 12°
2026-04-30 08:07 50.57351 4.60898 7034 ft 289 kts 348°
2026-04-30 08:07 50.59168 4.59433 7791 ft 300 kts 321°
2026-04-30 08:08 50.60437 4.56818 8594 ft 305 kts 293°
2026-04-30 08:08 50.60885 4.53569 9372 ft 307 kts 270°
2026-04-30 08:08 50.60815 4.50202 10154 ft 309 kts 264°
2026-04-30 08:08 50.60634 4.46743 10510 ft 328 kts 263°
2026-04-30 08:09 50.60416 4.43042 10704 ft 350 kts 263°
2026-04-30 08:09 50.60194 4.39159 11205 ft 360 kts 264°
2026-04-30 08:09 50.59983 4.35212 11881 ft 364 kts 264°
2026-04-30 08:09 50.59778 4.31206 12611 ft 368 kts 264°
2026-04-30 08:10 50.59579 4.27170 13330 ft 372 kts 265°
2026-04-30 08:10 50.59380 4.23084 14061 ft 377 kts 265°
2026-04-30 08:10 50.59180 4.18951 14745 ft 381 kts 265°
2026-04-30 08:10 50.58978 4.14778 15464 ft 384 kts 265°
2026-04-30 08:11 50.58772 4.10578 16203 ft 386 kts 265°
2026-04-30 08:11 50.58564 4.06353 16909 ft 390 kts 265°
2026-04-30 08:11 50.58352 4.02077 17604 ft 394 kts 265°
2026-04-30 08:11 50.58137 3.97758 18310 ft 397 kts 265°
2026-04-30 08:12 50.57917 3.93404 18919 ft 402 kts 265°
2026-04-30 08:12 50.57601 3.89020 19474 ft 405 kts 255°
2026-04-30 08:12 50.56476 3.84980 20059 ft 405 kts 233°
2026-04-30 08:12 50.54583 3.81751 20702 ft 402 kts 216°
2026-04-30 08:13 50.52189 3.79542 21277 ft 399 kts 201°
2026-04-30 08:13 50.49628 3.77813 21837 ft 403 kts 199°
2026-04-30 08:13 50.47025 3.76118 22369 ft 407 kts 199°
2026-04-30 08:13 50.44433 3.74419 22912 ft 410 kts 200°
2026-04-30 08:14 50.41796 3.72660 23471 ft 414 kts 200°
2026-04-30 08:14 50.39108 3.70842 23989 ft 417 kts 200°
2026-04-30 08:14 50.36441 3.69029 24443 ft 420 kts 200°
2026-04-30 08:14 50.33762 3.67208 24991 ft 420 kts 200°
2026-04-30 08:15 50.31073 3.65385 25465 ft 422 kts 200°
2026-04-30 08:15 50.28369 3.63557 25891 ft 425 kts 200°
2026-04-30 08:15 50.25642 3.61715 26311 ft 428 kts 200°
2026-04-30 08:15 50.22943 3.59893 26844 ft 427 kts 200°
2026-04-30 08:16 50.20228 3.58061 27492 ft 424 kts 199°
2026-04-30 08:16 50.17533 3.56246 28142 ft 421 kts 199°
2026-04-30 08:16 50.14847 3.54445 28708 ft 420 kts 199°
2026-04-30 08:16 50.12168 3.52652 29267 ft 419 kts 199°
2026-04-30 08:17 50.09493 3.50864 29858 ft 417 kts 198°
2026-04-30 08:17 50.06833 3.49088 30411 ft 416 kts 198°
2026-04-30 08:17 50.04174 3.47314 30860 ft 415 kts 198°
2026-04-30 08:17 50.01525 3.45548 31242 ft 416 kts 199°
2026-04-30 08:18 49.98861 3.43775 31225 ft 415 kts 199°
2026-04-30 08:18 49.93568 3.40256 31253 ft 414 kts 198°
2026-04-30 08:19 49.88261 3.36737 31258 ft 415 kts 198°
2026-04-30 08:19 49.82941 3.33216 31247 ft 416 kts 198°
2026-04-30 08:20 49.77618 3.29699 31243 ft 416 kts 198°
2026-04-30 08:20 49.72299 3.26180 31235 ft 415 kts 198°
2026-04-30 08:21 49.66993 3.22678 31235 ft 414 kts 198°
2026-04-30 08:21 49.61693 3.19188 31230 ft 413 kts 198°
2026-04-30 08:22 49.56413 3.15719 31222 ft 413 kts 198°
2026-04-30 08:22 49.51133 3.12258 31232 ft 411 kts 198°
2026-04-30 08:23 49.46031 3.08226 31228 ft 416 kts 208°
2026-04-30 08:23 49.41223 3.03258 31219 ft 417 kts 210°
2026-04-30 08:24 49.36423 2.98281 31214 ft 416 kts 209°
2026-04-30 08:24 49.31608 2.93373 31210 ft 416 kts 208°
2026-04-30 08:25 49.26776 2.88492 31215 ft 416 kts 208°
2026-04-30 08:25 49.21970 2.83657 31199 ft 416 kts 208°
2026-04-30 08:26 49.17131 2.78798 31194 ft 416 kts 208°
2026-04-30 08:26 49.12286 2.73943 31184 ft 416 kts 208°
2026-04-30 08:27 49.07438 2.69096 31189 ft 416 kts 208°
2026-04-30 08:27 49.02592 2.64262 31190 ft 416 kts 208°
2026-04-30 08:28 48.97784 2.59475 31173 ft 410 kts 208°
2026-04-30 08:28 48.92997 2.54726 31188 ft 412 kts 208°
2026-04-30 08:29 48.88193 2.49967 31179 ft 413 kts 208°
2026-04-30 08:29 48.83375 2.45201 31188 ft 414 kts 208°
2026-04-30 08:30 48.78553 2.40441 31184 ft 413 kts 208°
2026-04-30 08:30 48.73731 2.35692 31179 ft 413 kts 208°
2026-04-30 08:31 48.68953 2.30997 31189 ft 412 kts 208°
2026-04-30 08:31 48.64121 2.26260 31189 ft 411 kts 208°
2026-04-30 08:32 48.59320 2.21565 31176 ft 410 kts 208°
2026-04-30 08:32 48.54214 2.18194 31172 ft 400 kts 189°
2026-04-30 08:33 48.48781 2.16494 31157 ft 399 kts 187°
2026-04-30 08:33 48.43346 2.14817 31152 ft 399 kts 188°
2026-04-30 08:34 48.37906 2.13083 31152 ft 401 kts 189°
2026-04-30 08:34 48.32441 2.11328 31145 ft 402 kts 189°
2026-04-30 08:35 48.26922 2.10290 31142 ft 398 kts 175°
2026-04-30 08:35 48.21454 2.11403 31145 ft 397 kts 168°
2026-04-30 08:36 48.15965 2.12638 31136 ft 400 kts 170°
2026-04-30 08:36 48.10394 2.13484 31132 ft 405 kts 175°
2026-04-30 08:37 48.04765 2.13783 31127 ft 405 kts 176°
2026-04-30 08:37 47.99145 2.14055 31126 ft 403 kts 176°
2026-04-30 08:38 47.93543 2.14357 31126 ft 402 kts 176°
2026-04-30 08:38 47.87956 2.14677 31130 ft 402 kts 176°
2026-04-30 08:39 47.82358 2.15001 31135 ft 403 kts 174°
2026-04-30 08:39 47.76743 2.15331 31103 ft 405 kts 177°
2026-04-30 08:40 47.71082 2.15658 31112 ft 409 kts 178°
2026-04-30 08:40 47.65367 2.15985 31104 ft 413 kts 178°
2026-04-30 08:41 47.59589 2.16317 31106 ft 416 kts 178°
2026-04-30 08:41 47.53835 2.16647 31097 ft 416 kts 178°
2026-04-30 08:42 47.48057 2.16977 31085 ft 414 kts 178°
2026-04-30 08:42 47.42324 2.17305 31094 ft 411 kts 178°
2026-04-30 08:43 47.36620 2.17630 31094 ft 409 kts 178°
2026-04-30 08:43 47.30953 2.17952 31090 ft 407 kts 178°
2026-04-30 08:44 47.25308 2.18273 31094 ft 406 kts 178°
2026-04-30 08:44 47.19670 2.18592 31092 ft 405 kts 178°
2026-04-30 08:45 47.14032 2.18911 31100 ft 406 kts 177°
2026-04-30 08:45 47.08417 2.19643 31085 ft 405 kts 166°
2026-04-30 08:46 47.03142 2.22456 31094 ft 404 kts 157°
2026-04-30 08:46 46.97957 2.25601 31089 ft 403 kts 157°
2026-04-30 08:47 46.92764 2.28677 31099 ft 402 kts 157°
2026-04-30 08:47 46.87582 2.31708 31099 ft 400 kts 158°
2026-04-30 08:48 46.82532 2.35058 31085 ft 398 kts 147°
2026-04-30 08:48 46.77939 2.39451 31106 ft 397 kts 146°
2026-04-30 08:49 46.73335 2.43918 31089 ft 397 kts 146°
2026-04-30 08:49 46.68695 2.48369 31092 ft 401 kts 147°
2026-04-30 08:50 46.64008 2.52827 31101 ft 404 kts 147°
2026-04-30 08:50 46.59272 2.57313 31098 ft 408 kts 147°
2026-04-30 08:51 46.54506 2.61816 31104 ft 410 kts 147°
2026-04-30 08:51 46.49783 2.66269 31086 ft 399 kts 147°
2026-04-30 08:52 46.45129 2.70649 31096 ft 400 kts 147°
2026-04-30 08:52 46.40444 2.75049 31106 ft 403 kts 147°
2026-04-30 08:53 46.35727 2.79470 31099 ft 404 kts 147°
2026-04-30 08:53 46.30998 2.83893 31102 ft 405 kts 147°
2026-04-30 08:54 46.26269 2.88306 31097 ft 405 kts 147°
2026-04-30 08:54 46.22333 2.91972 31100 ft 405 kts 147°
2026-04-30 08:55 46.17599 2.96373 31103 ft 405 kts 147°
2026-04-30 08:55 46.12871 3.00760 31103 ft 404 kts 147°
2026-04-30 08:56 46.08158 3.05125 31096 ft 401 kts 147°
2026-04-30 08:56 46.03477 3.09451 31101 ft 398 kts 148°
2026-04-30 08:57 45.98826 3.13742 31091 ft 397 kts 147°
2026-04-30 08:57 45.93911 3.17273 31105 ft 399 kts 166°
2026-04-30 08:58 45.88340 3.18095 31118 ft 406 kts 181°
2026-04-30 08:58 45.82720 3.17951 31103 ft 402 kts 181°
2026-04-30 08:59 45.77135 3.17802 31098 ft 400 kts 181°
2026-04-30 08:59 45.71575 3.17699 31109 ft 399 kts 181°
2026-04-30 09:00 45.66054 3.17620 31111 ft 399 kts 181°
2026-04-30 09:00 45.60504 3.17546 31117 ft 399 kts 181°
2026-04-30 09:01 45.54954 3.17474 31109 ft 399 kts 181°
2026-04-30 09:01 45.49393 3.17401 31116 ft 400 kts 181°
2026-04-30 09:02 45.41031 3.17291 31107 ft 401 kts 181°
2026-04-30 09:02 45.35439 3.17218 31115 ft 402 kts 181°
2026-04-30 09:03 45.29854 3.17144 31115 ft 401 kts 181°
2026-04-30 09:03 45.24272 3.17071 31116 ft 400 kts 181°
2026-04-30 09:04 45.18706 3.16999 31116 ft 400 kts 181°
2026-04-30 09:04 45.13150 3.16927 31124 ft 399 kts 181°
2026-04-30 09:05 45.07614 3.16855 31115 ft 397 kts 182°
2026-04-30 09:05 45.02108 3.16783 31106 ft 389 kts 182°
2026-04-30 09:06 44.99422 3.16749 30906 ft 384 kts 182°
2026-04-30 09:06 44.96771 3.16715 30673 ft 378 kts 181°
2026-04-30 09:06 44.94157 3.16681 30328 ft 376 kts 182°
2026-04-30 09:06 44.91554 3.16644 29961 ft 373 kts 182°
2026-04-30 09:07 44.88972 3.16607 29595 ft 369 kts 183°
2026-04-30 09:07 44.86415 3.16569 29217 ft 366 kts 182°
2026-04-30 09:07 44.83878 3.16532 28863 ft 363 kts 182°
2026-04-30 09:07 44.81366 3.16496 28511 ft 359 kts 182°
2026-04-30 09:08 44.78875 3.16460 28138 ft 357 kts 182°
2026-04-30 09:08 44.76408 3.16425 27819 ft 353 kts 181°
2026-04-30 09:08 44.73957 3.16388 27466 ft 351 kts 182°
2026-04-30 09:08 44.71530 3.16353 27144 ft 348 kts 181°
2026-04-30 09:09 44.69115 3.16319 26790 ft 346 kts 182°
2026-04-30 09:09 44.66748 3.16286 26455 ft 344 kts 181°
2026-04-30 09:09 44.64331 3.16251 26111 ft 342 kts 182°
2026-04-30 09:09 44.61960 3.16214 25789 ft 340 kts 183°
2026-04-30 09:10 44.59654 3.15860 25496 ft 335 kts 194°
2026-04-30 09:10 44.57407 3.15078 25230 ft 331 kts 195°
2026-04-30 09:10 44.55180 3.14263 24914 ft 330 kts 196°
2026-04-30 09:10 44.52968 3.13446 24588 ft 328 kts 195°
2026-04-30 09:11 44.50761 3.12642 24286 ft 327 kts 195°
2026-04-30 09:11 44.48557 3.11849 23953 ft 327 kts 195°
2026-04-30 09:11 44.46358 3.11068 23629 ft 326 kts 195°
2026-04-30 09:11 44.44161 3.10290 23243 ft 325 kts 194°
2026-04-30 09:12 44.41975 3.09517 22893 ft 324 kts 194°
2026-04-30 09:12 44.39798 3.08747 22554 ft 322 kts 194°
2026-04-30 09:12 44.37630 3.07981 22240 ft 319 kts 195°
2026-04-30 09:12 44.35484 3.07223 21919 ft 317 kts 195°
2026-04-30 09:13 44.33354 3.06471 21598 ft 315 kts 195°
2026-04-30 09:13 44.31227 3.05719 21279 ft 314 kts 195°
2026-04-30 09:13 44.29117 3.04975 20975 ft 312 kts 194°
2026-04-30 09:13 44.27016 3.04237 20659 ft 311 kts 194°
2026-04-30 09:14 44.24929 3.03505 20350 ft 309 kts 194°
2026-04-30 09:14 44.22847 3.02772 20046 ft 308 kts 195°
2026-04-30 09:14 44.20774 3.02043 19719 ft 307 kts 194°
2026-04-30 09:14 44.18712 3.01320 19431 ft 305 kts 194°
2026-04-30 09:15 44.16655 3.00598 19112 ft 304 kts 194°
2026-04-30 09:15 44.14606 2.99881 18818 ft 303 kts 195°
2026-04-30 09:15 44.12565 2.99165 18510 ft 303 kts 194°
2026-04-30 09:15 44.10526 2.98451 18188 ft 301 kts 195°
2026-04-30 09:16 44.08503 2.97740 17872 ft 299 kts 194°
2026-04-30 09:16 44.06492 2.97032 17578 ft 297 kts 194°
2026-04-30 09:16 44.04495 2.96330 17252 ft 295 kts 195°
2026-04-30 09:16 44.02507 2.95633 16968 ft 293 kts 194°
2026-04-30 09:17 44.00537 2.94944 16668 ft 291 kts 195°
2026-04-30 09:17 43.98581 2.94260 16386 ft 289 kts 195°
2026-04-30 09:17 43.96662 2.93590 16090 ft 287 kts 195°
2026-04-30 09:17 43.94728 2.92915 15797 ft 286 kts 195°
2026-04-30 09:18 43.92780 2.92236 15493 ft 285 kts 195°
2026-04-30 09:18 43.90886 2.91576 15211 ft 284 kts 194°
2026-04-30 09:18 43.88951 2.90904 14917 ft 282 kts 194°
2026-04-30 09:18 43.87075 2.90252 14645 ft 281 kts 195°
2026-04-30 09:19 43.85182 2.89594 14337 ft 280 kts 195°
2026-04-30 09:19 43.83276 2.88931 14040 ft 279 kts 195°
2026-04-30 09:19 43.81420 2.88289 13729 ft 278 kts 194°
2026-04-30 09:19 43.79547 2.87646 13406 ft 277 kts 194°
2026-04-30 09:20 43.77643 2.87418 13099 ft 277 kts 172°
2026-04-30 09:20 43.75839 2.88288 12832 ft 276 kts 153°
2026-04-30 09:20 43.74220 2.89710 12570 ft 275 kts 149°
2026-04-30 09:20 43.72649 2.91209 12291 ft 273 kts 148°
2026-04-30 09:21 43.71093 2.92700 11986 ft 273 kts 147°
2026-04-30 09:21 43.69533 2.94183 11712 ft 272 kts 147°
2026-04-30 09:21 43.67974 2.95657 11426 ft 271 kts 147°
2026-04-30 09:21 43.66412 2.97125 11146 ft 271 kts 147°
2026-04-30 09:22 43.64851 2.98586 10861 ft 271 kts 148°
2026-04-30 09:22 43.63297 3.00037 10593 ft 269 kts 148°
2026-04-30 09:22 43.61744 3.01485 10305 ft 269 kts 149°
2026-04-30 09:22 43.60217 3.02906 10202 ft 260 kts 149°
2026-04-30 09:23 43.58725 3.04295 9946 ft 259 kts 148°
2026-04-30 09:23 43.57229 3.05683 9668 ft 258 kts 149°
2026-04-30 09:23 43.55740 3.07065 9396 ft 258 kts 149°
2026-04-30 09:23 43.54253 3.08442 9123 ft 257 kts 149°
2026-04-30 09:24 43.52770 3.09819 8851 ft 256 kts 149°
2026-04-30 09:24 43.51298 3.11180 8606 ft 254 kts 149°
2026-04-30 09:24 43.49835 3.12534 8346 ft 253 kts 148°
2026-04-30 09:24 43.48375 3.13879 8073 ft 252 kts 149°
2026-04-30 09:25 43.46910 3.15226 7816 ft 252 kts 148°
2026-04-30 09:25 43.45460 3.16561 7556 ft 251 kts 148°
2026-04-30 09:25 43.44011 3.17896 7339 ft 249 kts 148°
2026-04-30 09:25 43.42596 3.19201 7229 ft 242 kts 148°
2026-04-30 09:26 43.41221 3.20469 7116 ft 235 kts 148°
2026-04-30 09:26 43.39885 3.21700 7006 ft 228 kts 148°
2026-04-30 09:26 43.38588 3.22894 6931 ft 221 kts 148°
2026-04-30 09:26 43.37332 3.24048 6823 ft 215 kts 148°
2026-04-30 09:27 43.36084 3.25193 6691 ft 217 kts 148°
2026-04-30 09:27 43.34822 3.26349 6468 ft 218 kts 148°
2026-04-30 09:27 43.33517 3.27388 6221 ft 217 kts 163°
2026-04-30 09:27 43.32044 3.27381 6069 ft 213 kts 194°
2026-04-30 09:28 43.30704 3.26541 5917 ft 214 kts 210°
2026-04-30 09:28 43.29477 3.25376 5786 ft 216 kts 210°
2026-04-30 09:28 43.28231 3.24210 5647 ft 218 kts 210°
2026-04-30 09:28 43.26969 3.23039 5487 ft 220 kts 209°
2026-04-30 09:29 43.25684 3.21858 5260 ft 221 kts 208°
2026-04-30 09:29 43.24516 3.20540 5079 ft 225 kts 228°
2026-04-30 09:29 43.23984 3.18508 4888 ft 234 kts 262°
2026-04-30 09:29 43.24204 3.16283 4651 ft 231 kts 280°
2026-04-30 09:30 43.24617 3.14187 4402 ft 227 kts 280°
2026-04-30 09:30 43.25244 3.12212 4137 ft 234 kts 308°
2026-04-30 09:30 43.26566 3.11010 3902 ft 226 kts 351°
2026-04-30 09:30 43.28082 3.10894 3692 ft 214 kts 10°
2026-04-30 09:31 43.29548 3.11043 3449 ft 207 kts 12°
2026-04-30 09:31 43.30953 3.11203 3239 ft 198 kts 13°
2026-04-30 09:31 43.32258 3.11533 3041 ft 178 kts 38°
2026-04-30 09:31 43.33083 3.12554 2903 ft 148 kts 70°
2026-04-30 09:32 43.33431 3.13808 2765 ft 136 kts 92°
2026-04-30 09:32 43.33398 3.15091 2680 ft 150 kts 99°
2026-04-30 09:32 43.33322 3.16695 2761 ft 177 kts 98°
2026-04-30 09:32 43.33246 3.18352 2713 ft 168 kts 99°
2026-04-30 09:33 43.33175 3.19875 2624 ft 153 kts 101°
2026-04-30 09:33 43.33110 3.21269 2535 ft 138 kts 101°
2026-04-30 09:33 43.33045 3.22521 2262 ft 129 kts 100°
2026-04-30 09:33 43.32976 3.23802 1891 ft 140 kts 100°
2026-04-30 09:34 43.32886 3.25138 1653 ft 141 kts 98°
2026-04-30 09:34 43.32850 3.26455 1456 ft 138 kts 95°
2026-04-30 09:34 43.32788 3.27759 1274 ft 136 kts 98°
2026-04-30 09:34 43.32691 3.29106 1035 ft 145 kts 97°
2026-04-30 09:35 43.32610 3.30500 803 ft 147 kts 97°
2026-04-30 09:35 43.32536 3.31914 545 ft 147 kts 96°
2026-04-30 09:35 43.32463 3.33290 238 ft 142 kts 95°
2026-04-30 09:35 43.32384 3.34616 61 ft 132 kts 93°
2026-04-30 09:36 43.32338 3.35476 52 ft 47 kts 94°
2026-04-30 09:36 43.32308 3.35777 49 ft 12 kts 142°
2026-04-30 09:36 43.32222 3.35780 51 ft 13 kts 183°
2026-04-30 09:36 43.32142 3.35769 50 ft 6 kts 204°
2026-04-30 09:37 43.32124 3.35718 53 ft 6 kts 267°
2026-04-30 09:37 43.32125 3.35660 55 ft 6 kts 274°
2026-04-30 09:37 43.32129 3.35604 56 ft 6 kts 276°
2026-04-30 09:37 43.32137 3.35549 57 ft 6 kts 284°
2026-04-30 09:38 43.32143 3.35493 57 ft 6 kts 278°
2026-04-30 09:38 43.32164 3.35439 56 ft 6 kts 303°
2026-04-30 09:38 43.32175 3.35379 54 ft 7 kts 275°
2026-04-30 09:38 43.32156 3.35342 51 ft 5 kts 175°
2026-04-30 09:39 43.32139 3.35343 57 ft 0 kts 180°